Regional Weather Roundup
Issued by NWS State College, PA

Home | Current Version | Previous Version | Text Only | Print | Product List | Glossary On
Versions: 1 2 3 4 5 6 7 8 9 10 11 12 13 14 15 16 17 18 19 20 21 22 23 24 25 26 27 28 29 30 31 32 33 34 35 36 37 38 39 40 41 42 43 44 45 46 47 48 49 50
000
ASUS41 KCTP 241810
RWRCTP

REGIONAL WEATHER ROUNDUP
NATIONAL WEATHER SERVICE STATE COLLEGE PA
200 PM EDT THU APR 24 2014

Note: "fair" indicates few or no clouds below 12,000 feet with no
significant weather and/or obstructions to visibility.

* = STATION THAT DOES NOT REPORT PRECIPITATION /E.G. RAIN...SNOW...ETC/
    THUNDER OR FOG.

PAZ002>004-007>009-013>016-020>023-029>032-241900-
WESTERN PENNSYLVANIA

CITY           SKY/WX    TMP DP  RH WIND       PRES   REMARKS
ERIE           SUNNY     47  23  38 N8        30.15F
MEADVILLE      NOT AVBL
FRANKLIN*      SUNNY     52  18  25 W7        30.10F
NEW CASTLE     FAIR      52  21  29 CALM      30.11F
BEAVER COUNTY  SUNNY     54  19  26 NW6       30.10F
BUTLER*        SUNNY     54  21  28 N7        30.11F
PITTSBURGH INT PTSUNNY   54  17  23 VRB3      30.09F
PITTSBURGH     SUNNY     54  15  21 VRB5      30.08F
INDIANA*       SUNNY     52  19  28 CALM      30.09F
LATROBE        SUNNY     52  21  30 E7        30.11F
WASHINGTON CO* SUNNY     54  19  26 NE3       30.11F
$$

PAZ004>006-010>012-017>019-024>028-033>037-041-042-045-046-049>053-241900-
CENTRAL PENNSYLVANIA

CITY           SKY/WX    TMP DP  RH WIND       PRES   REMARKS
BRADFORD       SUNNY     51  14  22 MISG      30.07F
DUBOIS         SUNNY     53  13  20 NW12G17   30.06F
CLEARFIELD     SUNNY     55  13  18 MISG      30.06F
JOHNSTOWN      SUNNY     49  15  25 N7        30.05F
ALTOONA        SUNNY     55  20  25 W12       30.06F
STATE COLLEGE  SUNNY     57  10  15 N9        30.03F
WILLIAMSPORT   SUNNY     58  15  18 NW10G21   30.03F
SELINSGROVE    SUNNY     60  18  19 N8        30.04F
FT INDIANTOWN  SUNNY     57  15  19 NW14G21   30.02F
CAPITAL CITY   SUNNY     58  15  18 N5        30.04F
HARRISBURG     MOSUNNY   62  21  20 W9G18     30.02F
YORK           SUNNY     58  20  22 N12       30.04F
$$

PAZ038>040-043-044-047-048-054-055-060>062-067>071-241900-
EASTERN PENNSYLVANIA

CITY           SKY/WX    TMP DP  RH WIND       PRES   REMARKS
SCRANTON       SUNNY     54  15  21 NW21G28   30.00S
MOUNT POCONO   SUNNY     50  15  24 N18G26    29.95S
ALLENTOWN      SUNNY     58  15  18 N17G25    29.97F
QUAKERTOWN*    SUNNY     55  18  22 W13G28    29.98F
READING        SUNNY     59  21  23 NW24      30.00F
LANCASTER      SUNNY     56  20  24 NW17G23   30.02F
COATESVILLE    NOT AVBL
POTTSTOWN      SUNNY     57  20  23 NW13G24   30.00F
BLUE BELL      SUNNY     59  14  17 NW16G23   29.97F
DOYLESTOWN     SUNNY     57  18  21 NW12G24   29.96F
WILLOW GROVE   NOT AVBL
NORTH PHILA    SUNNY     60  16  18 NW20G29   29.99F
PHILADELPHIA   MOSUNNY   59  14  17 NW16G28   29.99F
$$



USA.gov is the U.S. government's official web portal to all federal, state and local government web resources and services.